Home   Weather   Huambo   Past weeks

Flag for Angola Past Weather in Huambo, Angola — Yesterday and Last 2 Weeks

Now
81 °F

Passing clouds.


Feels Like: 84 °F
Forecast: 59 / 81 °F
Wind: 5 mph from Southwest

Location: Luanda Airport

Current Time: Jan 19, 2017 at 8:24:47 pm

Latest Report: Jan 19, 2017 at 7:00 pm


Visibility: N/A

Pressure: 29.80 "Hg (24.50 "Hg at 1720m altitude)

Humidity: 70%

Dew Point: 70 °F

Location of HuamboLocation

Past Weather in Huambo — Graph

°F

Huambo Temperature Yesterday

Maximum temperature yesterday: 84 °F (at 11:00 am)
Minimum temperature yesterday: 75 °F (at 5:00 am)
Average temperature yesterday: 80 °F

High & Low Weather Summary for the Past Weeks

 TemperatureHumidityPressure
High90 °F (Jan 8, 3:00 pm)94% (Jan 5, 1:30 pm)29.95 "Hg (Jan 5, 1:30 pm)
Low75 °F (Jan 5, 1:30 pm)52% (Jan 11, 2:00 pm)29.71 "Hg (Jan 5, 5:00 pm)
Average80 °F78%29.81 "Hg
* Reported Jan 4 6:00 pm — Jan 19 6:00 pm, Huambo, Weather by CustomWeather, © 2017

Note: Actual official high and low records may vary slightly from our data, if they occured in-between our weather recording intervals... More about our weather records

Advertising

Huambo Weather History for the Previous 24 Hours

Scroll right to see more
 ConditionsComfort  
Time TempWeatherWind HumidityBarometerVisibility
6:00 pm
Thu, Jan 19
82 °FScattered clouds.6 mph70%29.80 "HgN/A
5:00 pm84 °FPassing clouds.6 mph66%29.80 "HgN/A
4:00 pm84 °FScattered clouds.8 mph62%29.83 "HgN/A
3:00 pm86 °FPartly sunny.9 mph59%29.83 "HgN/A
2:00 pm88 °FPartly sunny.9 mph59%29.83 "HgN/A
1:00 pm86 °FPartly sunny.7 mph62%29.83 "Hg4 mi
12:00 pm84 °FBroken clouds.2 mph66%29.86 "Hg4 mi
11:00 am82 °FBroken clouds.No wind70%29.89 "Hg4 mi
10:00 am81 °FBroken clouds.No wind74%29.89 "Hg4 mi
9:00 am79 °FBroken clouds.2 mph79%29.92 "Hg4 mi
8:00 am79 °FPartly sunny.5 mph79%29.89 "Hg5 mi
7:00 am77 °FPartly sunny.3 mph83%29.89 "Hg5 mi
6:00 am75 °FPartly sunny.No wind89%29.86 "Hg5 mi
5:00 am75 °FPassing clouds.3 mph89%29.83 "Hg5 mi
4:00 am77 °FPassing clouds.5 mph83%29.80 "Hg5 mi
3:00 am77 °FPassing clouds.6 mph83%29.80 "Hg5 mi
2:00 am77 °FPassing clouds.6 mph83%29.83 "Hg5 mi
1:00 am79 °FPassing clouds.7 mph79%29.83 "Hg5 mi
12:00 am79 °FPassing clouds.5 mph79%29.86 "HgN/A
11:00 pm
Wed, Jan 18
79 °FPassing clouds.5 mph79%29.86 "HgN/A
10:00 pm79 °FPassing clouds.6 mph74%29.86 "HgN/A
9:00 pm81 °FPassing clouds.5 mph70%29.83 "HgN/A
8:00 pm81 °FPassing clouds.7 mph70%29.80 "HgN/A
Weather by CustomWeather, © 2017

See weather overviewHow to use our weather pages